Time,TemperatureF,DewpointF,PressureIn,WindDirection,WindDirectionDegrees,WindSpeedMPH,WindSpeedGustMPH,Humidity,HourlyPrecipIn,Conditions,Clouds,dailyrainin,SoftwareType,DateUTC
2013-01-06 16:43:00,43.0,27.0,-100.00,NNW,335,3.0,10.0,54,-99.99,,,-99.99,,2013-01-06 21:43:00,
2013-01-06 16:53:00,42.0,27.0,-100.00,WNW,285,5.0,9.0,55,-99.99,,,-99.99,,2013-01-06 21:53:00,
2013-01-06 17:02:00,42.0,27.0,-100.00,WNW,285,5.0,9.0,55,-99.99,,,-99.99,,2013-01-06 22:02:00,
2013-01-06 17:12:00,40.0,27.0,-100.00,WSW,255,3.0,7.0,59,-99.99,,,-99.99,,2013-01-06 22:12:00,
2013-01-06 17:22:00,40.0,27.0,-100.00,WSW,255,3.0,7.0,59,-99.99,,,-99.99,,2013-01-06 22:22:00,
2013-01-06 17:33:00,39.0,27.0,-100.00,West,260,3.0,6.0,61,-99.99,,,-99.99,,2013-01-06 22:33:00,
2013-01-06 17:43:00,39.0,27.0,-100.00,NW,305,2.0,6.0,62,-99.99,,,-99.99,,2013-01-06 22:43:00,
2013-01-06 17:52:00,39.0,27.0,-100.00,NW,305,2.0,6.0,62,-99.99,,,-99.99,,2013-01-06 22:52:00,
2013-01-06 18:02:00,36.0,26.0,-100.00,WNW,285,2.0,5.0,68,-99.99,,,-99.99,,2013-01-06 23:02:00,
2013-01-06 18:13:00,36.0,26.0,-100.00,West,260,3.0,8.0,68,-99.99,,,-99.99,,2013-01-06 23:13:00,
2013-01-06 18:22:00,35.0,26.0,-100.00,West,265,3.0,7.0,70,-99.99,,,-99.99,,2013-01-06 23:22:00,
2013-01-06 18:33:00,33.0,25.0,-100.00,East,100,0.0,2.0,71,-99.99,,,-99.99,,2013-01-06 23:33:00,
2013-01-06 18:43:00,33.0,26.0,-100.00,West,260,2.0,6.0,74,-99.99,,,-99.99,,2013-01-06 23:43:00,
2013-01-06 18:53:00,33.0,25.0,-100.00,North,5,1.0,5.0,74,-99.99,,,-99.99,,2013-01-06 23:53:00,
2013-01-06 19:03:00,32.0,25.0,-100.00,SW,235,1.0,5.0,74,-99.99,,,-99.99,,2013-01-07 00:03:00,
2013-01-06 19:12:00,31.0,25.0,-100.00,SW,220,2.0,3.0,76,-99.99,,,-99.99,,2013-01-07 00:12:00,
2013-01-06 19:23:00,32.0,25.0,-100.00,West,270,2.0,6.0,76,-99.99,,,-99.99,,2013-01-07 00:23:00,
2013-01-06 20:32:00,30.0,25.0,-100.00,SE,130,0.0,2.0,82,-99.99,,,-99.99,,2013-01-07 01:32:00,
2013-01-06 21:32:00,30.0,25.0,-100.00,SSE,155,1.0,1.0,83,-99.99,,,-99.99,,2013-01-07 02:32:00,
2013-01-06 21:42:00,30.0,25.0,-100.00,West,260,2.0,5.0,84,-99.99,,,-99.99,,2013-01-07 02:42:00,
2013-01-06 21:53:00,30.0,26.0,-100.00,WSW,250,1.0,5.0,84,-99.99,,,-99.99,,2013-01-07 02:53:00,
2013-01-06 22:02:00,30.0,25.0,-100.00,ESE,105,0.0,3.0,84,-99.99,,,-99.99,,2013-01-07 03:02:00,
2013-01-06 22:12:00,30.0,26.0,-100.00,West,270,2.0,6.0,85,-99.99,,,-99.99,,2013-01-07 03:12:00,
2013-01-06 22:23:00,29.0,25.0,-100.00,North,10,1.0,3.0,85,-99.99,,,-99.99,,2013-01-07 03:23:00,
2013-01-06 22:33:00,29.0,25.0,-100.00,WSW,250,0.0,3.0,85,-99.99,,,-99.99,,2013-01-07 03:33:00,
2013-01-06 22:43:00,29.0,25.0,-100.00,SW,225,1.0,6.0,85,-99.99,,,-99.99,,2013-01-07 03:43:00,
2013-01-06 22:52:00,28.0,24.0,-100.00,South,170,1.0,1.0,86,-99.99,,,-99.99,,2013-01-07 03:52:00,
2013-01-06 23:00:00,27.0,24.0,-100.00,SSW,210,2.0,2.0,87,-99.99,,,-99.99,,2013-01-07 04:00:00,
2013-01-06 23:02:00,29.0,25.0,-100.00,WSW,255,1.0,5.0,85,-99.99,,,-99.99,,2013-01-07 04:02:00,
2013-01-06 23:13:00,28.0,25.0,-100.00,WSW,250,2.0,6.0,89,-99.99,,,-99.99,,2013-01-07 04:13:00,
2013-01-06 23:22:00,28.0,24.0,-100.00,SW,235,1.0,2.0,87,-99.99,,,-99.99,,2013-01-07 04:22:00,
2013-01-06 23:33:00,28.0,25.0,-100.00,West,275,1.0,5.0,88,-99.99,,,-99.99,,2013-01-07 04:33:00,
2013-01-06 23:42:00,27.0,24.0,-100.00,SSW,210,2.0,2.0,87,-99.99,,,-99.99,,2013-01-07 04:42:00,
2013-01-06 23:52:00,27.0,24.0,-100.00,SSW,210,2.0,2.0,87,-99.99,,,-99.99,,2013-01-07 04:52:00,